Theta_e
329 327 327 329 326 322 324 322 317 320 325 323 317 315 315 314 315 316 313 311 316 322 326 330 331 332 331 333 337 338 344 350 349 349 351 351 352 353 354 355 358 358 356 354 354 354 358 359 359 359 358 358 358 358 358 358 358 358 358 358 358 358 358
328 328 328 329 329 326 322 317 319 325 325 324 321 317 316 316 315 315 312 311 313 312 317 327 330 330 330 332 333 336 341 346 348 350 351 351 351 352 353 355 356 358 357 355 354 354 357 359 359 359 359 358 358 358 359 358 358 358 359 358 358 358 358
327 329 328 325 327 330 325 321 325 324 316 315 317 315 316 317 315 314 312 312 313 311 314 322 327 329 330 331 333 333 339 344 346 348 351 351 351 352 352 353 354 356 357 356 354 354 356 358 359 359 359 359 359 359 359 359 359 359 359 359 359 359 359
327 328 326 320 321 328 329 326 326 324 318 316 317 315 315 317 317 316 314 312 313 317 322 324 326 330 330 332 335 333 337 345 346 346 349 351 351 352 352 352 352 354 355 355 354 355 355 356 358 359 360 360 360 361 361 360 360 359 359 360 360 359 359
323 322 324 322 322 324 324 321 319 318 319 319 320 317 314 315 318 319 318 316 317 328 333 327 328 332 331 333 340 335 334 345 349 344 345 350 352 352 352 352 352 352 352 354 354 355 355 356 358 359 360 361 361 361 362 362 361 360 360 360 360 360 360
316 319 328 329 328 327 325 322 318 317 317 316 315 316 315 312 314 318 320 318 322 338 337 329 329 332 331 333 341 341 337 342 349 347 343 348 351 351 351 352 352 352 352 352 353 354 356 357 360 360 360 361 361 361 362 363 362 362 361 361 360 361 361
321 325 330 329 328 330 329 326 326 323 320 315 312 315 317 313 312 316 316 315 327 348 343 333 332 333 332 333 339 343 337 336 347 348 342 346 349 350 351 350 351 352 352 351 352 354 355 356 359 361 361 362 362 362 362 363 364 363 362 362 361 361 361
327 328 330 330 330 330 326 325 328 326 322 320 319 323 324 317 312 314 313 313 327 350 348 337 334 334 335 334 337 342 337 336 347 348 342 343 348 351 350 350 351 352 351 352 353 355 354 355 356 360 362 362 362 362 362 362 363 363 363 363 362 361 361
322 325 326 325 326 327 325 327 328 327 327 325 322 326 326 319 314 315 314 314 326 351 355 342 337 336 335 335 337 339 336 338 346 347 344 344 348 352 351 350 353 352 352 355 356 357 356 355 356 359 362 363 362 362 363 363 363 363 364 364 363 362 361
321 323 323 320 321 325 325 326 327 327 328 324 321 320 319 320 321 317 315 316 326 346 353 343 340 339 337 336 338 339 342 349 351 347 346 345 347 352 353 351 352 351 353 357 359 360 359 356 357 359 361 363 362 361 362 363 365 365 365 365 364 363 362
329 330 334 332 325 322 320 322 324 326 327 326 324 318 316 326 327 318 323 329 326 332 341 342 340 340 342 345 348 351 359 366 361 349 347 346 345 350 352 350 352 354 356 358 359 362 360 357 356 358 361 362 362 362 361 362 366 367 366 367 366 365 363
332 334 338 337 329 322 319 321 322 323 326 326 322 316 322 338 327 316 333 344 328 329 342 345 344 344 348 350 352 354 359 366 363 352 347 347 346 349 351 349 353 356 357 359 360 360 357 355 355 355 359 362 362 362 362 361 365 367 368 368 368 367 365
330 332 333 333 332 329 325 324 323 322 324 323 320 319 330 344 328 322 342 348 334 336 342 343 344 343 344 346 346 348 351 356 357 351 347 348 348 350 350 351 355 357 357 360 361 359 357 354 354 355 358 362 363 362 363 363 364 366 368 369 368 368 366
329 332 334 333 331 330 329 327 326 326 324 323 323 323 331 340 335 338 353 351 342 338 337 339 341 339 339 342 342 346 348 350 353 350 347 351 353 354 353 354 357 357 359 361 360 361 359 355 355 358 361 363 364 363 363 363 364 365 366 368 368 368 367
332 334 335 334 331 329 327 327 330 331 327 324 323 324 328 334 334 338 349 346 340 337 337 339 339 338 339 340 342 346 347 345 346 348 349 351 352 353 355 358 359 359 362 365 362 362 363 359 359 362 364 364 364 364 364 364 363 364 365 367 368 368 368
336 337 332 330 329 328 325 325 329 330 327 324 322 324 327 331 333 335 336 334 335 339 339 338 339 340 340 340 341 342 341 340 341 344 349 356 361 362 365 370 371 368 370 373 370 365 362 362 362 362 363 365 365 365 365 365 364 363 363 365 366 367 367
333 330 327 327 326 325 325 327 330 331 331 330 325 324 328 334 337 338 335 335 342 344 340 337 340 340 341 345 344 342 343 345 344 342 345 356 368 373 377 380 377 374 375 380 378 370 364 364 364 363 363 364 365 365 364 365 365 364 363 363 364 365 366
326 323 327 331 327 324 328 332 333 333 332 332 328 327 329 328 332 339 343 346 347 343 341 343 342 339 342 345 342 343 347 346 346 350 352 353 357 364 369 373 374 376 381 381 374 367 365 366 365 363 363 363 364 364 365 364 364 364 364 363 363 365 365
324 326 333 333 327 327 332 333 334 333 331 330 332 338 343 342 340 341 341 344 345 343 344 346 343 341 342 343 343 348 352 349 349 356 361 361 361 365 369 372 374 377 380 380 372 364 362 362 361 362 363 363 363 363 362 364 363 363 363 363 363 365 364
327 332 334 331 328 331 334 333 333 332 334 334 335 340 344 345 345 346 342 341 343 342 341 342 343 343 343 346 351 355 357 356 356 356 358 362 366 368 369 371 374 373 370 370 368 361 356 355 354 355 358 359 361 362 361 361 362 361 363 363 362 364 365
327 328 327 325 326 331 334 333 332 330 332 335 336 341 343 344 346 348 347 342 338 338 339 341 343 344 347 353 354 353 354 355 355 356 356 358 364 365 363 363 365 363 361 361 362 358 356 357 357 356 357 357 358 359 360 360 360 361 361 362 362 363 365
324 328 329 326 325 330 331 329 329 330 330 331 336 344 343 343 344 347 349 347 343 342 343 345 346 350 355 359 356 351 351 352 351 353 353 353 358 359 357 357 358 359 361 363 364 365 365 365 366 365 364 362 361 361 361 359 358 359 361 362 361 362 364
322 329 334 329 326 331 331 328 328 331 332 333 336 346 344 343 343 346 348 348 348 348 348 349 351 353 357 360 357 351 350 350 350 353 354 353 354 354 353 357 359 360 364 365 365 366 364 363 366 367 367 365 364 365 365 363 359 357 358 360 362 362 364
322 326 329 328 329 331 328 325 328 331 332 333 340 349 346 342 340 343 346 346 348 348 349 349 350 353 356 358 355 350 349 350 351 352 355 356 355 352 353 357 359 359 363 364 363 363 361 362 365 367 369 369 367 365 365 365 364 361 358 359 360 360 362
319 323 325 326 330 329 325 325 329 329 332 340 349 350 346 340 339 342 342 343 345 345 346 348 350 351 351 350 349 348 348 350 351 351 352 354 353 352 354 357 357 357 360 361 361 360 362 363 363 363 367 371 372 369 364 363 364 362 360 360 359 359 361
317 321 322 325 331 329 324 326 328 327 337 347 347 344 340 334 337 341 339 340 343 343 345 347 347 347 345 345 347 347 347 349 351 351 351 352 353 353 354 356 355 356 359 361 360 362 363 362 360 362 365 369 372 372 368 367 366 363 362 363 360 359 362
318 320 322 330 335 329 321 325 329 329 337 343 341 337 334 331 333 336 337 338 340 341 343 345 345 345 345 345 346 346 346 348 349 349 350 352 353 353 354 355 355 356 359 361 359 360 361 360 360 362 364 368 372 372 370 372 370 365 363 365 362 360 362
321 324 327 333 335 326 320 325 328 326 330 336 337 334 332 330 329 331 333 334 334 338 341 342 343 344 344 345 347 346 346 347 348 349 350 351 351 352 352 355 355 354 357 359 358 357 358 359 360 361 363 368 372 372 370 371 371 367 365 368 367 364 363
323 325 325 327 327 324 321 324 326 325 324 325 329 331 330 328 328 329 331 330 331 334 337 338 340 341 342 344 346 346 346 347 348 349 350 350 351 352 352 354 354 354 356 358 357 357 358 359 360 361 363 365 367 368 368 368 370 369 368 370 371 367 364
321 322 322 323 323 322 320 320 324 328 327 324 326 329 328 328 327 327 328 330 330 331 334 336 339 340 340 342 343 345 348 349 349 350 350 350 350 351 353 355 354 354 356 356 357 358 358 357 358 359 361 362 363 365 366 366 368 368 369 372 373 370 367
318 319 321 321 319 319 320 320 322 325 327 327 327 328 329 330 329 326 327 329 330 330 331 333 335 337 339 340 341 343 346 349 352 353 352 351 349 350 353 355 353 353 355 356 357 358 356 355 356 357 359 361 362 362 363 364 366 367 369 371 372 372 370
318 318 319 318 318 320 322 322 321 322 324 327 327 325 326 329 328 325 324 326 328 329 329 329 330 333 337 339 340 340 342 345 351 354 353 351 350 350 352 353 353 352 353 355 357 356 355 355 356 356 357 358 360 361 363 363 365 366 367 368 370 371 371
316 317 317 318 319 319 319 319 320 320 321 324 324 323 323 324 325 325 324 324 326 328 328 328 329 331 335 338 338 339 340 342 346 351 351 349 349 350 352 353 352 351 351 353 354 353 352 353 353 355 356 357 358 361 362 363 365 366 366 366 368 369 369
316 317 317 318 317 316 316 317 318 318 319 321 322 323 324 323 324 327 326 324 324 326 327 327 328 331 334 336 336 337 339 341 344 347 348 348 348 349 351 352 352 350 350 352 352 350 351 352 353 354 355 356 357 358 359 361 364 365 365 366 368 368 368
316 317 316 316 316 316 316 316 317 318 319 319 320 322 325 324 324 327 327 325 324 326 326 326 327 330 333 333 333 334 337 338 340 343 345 347 348 348 350 352 354 351 350 351 351 351 351 352 352 353 354 354 354 355 356 357 359 361 364 368 368 367 366
315 315 315 315 316 316 316 316 316 317 318 319 319 320 322 324 323 324 325 324 324 326 328 327 326 327 329 330 330 333 337 338 339 341 343 346 348 348 349 352 354 353 352 352 351 351 351 350 350 350 350 350 352 353 353 354 356 359 362 364 364 363 363
313 313 314 314 314 315 315 315 316 317 318 319 319 319 321 323 323 322 323 324 325 326 328 328 325 323 325 327 328 332 335 337 339 341 342 344 346 348 348 350 353 353 353 351 350 349 349 349 349 348 348 348 351 352 351 351 354 357 359 360 360 359 360
Wind_Speed
15 16 15 13 10 6 6 9 9 6 6 4 3 2 2 2 2 4 5 6 4 4 5 7 11 14 13 11 10 11 20 26 23 18 19 19 18 17 17 17 17 18 18 20 25 27 27 30 33 33 34 36 37 37 38 39 39 39 40 41 41 41 42
18 15 15 15 13 7 7 9 8 5 5 6 2 2 3 4 5 4 7 9 7 6 6 7 12 16 16 14 13 10 16 24 24 20 20 20 19 18 18 18 17 17 18 19 24 29 32 35 37 36 34 34 36 36 38 39 39 39 41 41 41 41 41
16 13 14 14 15 13 8 8 9 6 6 6 4 3 4 6 5 4 8 10 8 8 8 9 12 16 16 15 16 14 13 18 20 19 21 20 19 17 16 16 15 15 17 19 23 29 32 35 36 35 34 34 35 36 38 40 41 42 42 41 41 40 39
15 11 11 11 12 14 10 8 10 8 5 4 5 4 2 4 4 4 6 8 7 7 10 14 16 15 14 13 14 16 14 17 17 16 18 19 18 17 16 15 16 16 17 20 26 30 31 32 33 34 35 36 36 37 37 39 40 41 41 40 40 39 39
15 10 10 12 12 12 10 8 9 8 6 3 5 4 3 3 3 3 5 5 5 6 8 15 17 15 15 12 11 13 14 18 19 19 19 18 18 18 17 16 17 17 17 20 26 30 31 33 34 35 35 36 37 37 38 39 40 40 40 40 40 39 39
11 12 12 13 15 13 11 7 7 10 8 5 6 6 5 5 3 3 4 4 6 5 4 12 17 14 14 13 10 10 13 17 20 20 19 19 18 18 18 18 17 17 16 17 21 27 29 30 32 34 35 35 36 37 38 39 39 40 41 41 41 40 39
8 13 16 16 17 16 13 9 7 9 10 7 6 5 6 6 5 5 3 3 6 7 6 10 16 12 11 13 11 8 10 14 19 21 19 18 18 18 18 18 17 16 16 16 20 24 27 28 29 33 34 34 36 37 38 38 38 40 41 41 42 41 40
8 8 12 17 17 15 12 11 9 7 10 10 6 4 6 5 5 6 3 3 5 8 7 4 12 12 11 10 9 9 8 11 18 22 19 17 17 19 19 17 16 15 15 16 17 19 22 26 29 31 32 32 33 34 35 36 38 39 40 41 41 42 41
6 6 6 13 15 14 9 9 12 10 10 14 9 3 4 5 6 7 3 3 5 7 7 7 9 12 12 9 9 9 9 11 18 21 19 18 17 18 20 17 15 16 15 15 15 15 18 24 27 29 30 30 30 32 33 33 35 38 39 40 40 41 42
4 4 5 8 11 11 8 9 15 14 12 15 12 5 3 4 7 8 5 3 5 6 6 8 7 8 10 9 7 6 7 10 15 17 18 19 18 18 20 19 17 16 15 15 16 15 17 22 25 28 30 30 30 31 32 32 33 36 37 38 38 40 41
4 5 5 7 13 13 9 11 15 17 16 13 11 7 4 5 6 6 6 5 3 5 3 3 3 4 6 6 6 6 7 9 11 14 15 16 16 18 20 19 18 17 16 17 18 17 18 21 24 27 29 30 30 30 32 33 33 34 36 37 38 39 40
8 11 11 5 11 16 16 15 13 17 20 17 10 9 7 6 8 5 7 8 6 4 4 4 4 5 8 9 9 8 7 8 9 14 18 17 14 16 18 18 18 18 16 16 17 16 16 21 25 26 29 31 31 31 33 34 34 34 35 37 37 38 38
11 12 14 10 4 6 12 17 16 15 21 21 14 10 9 8 8 6 8 10 8 6 6 5 4 7 10 10 10 9 7 9 9 12 18 16 13 14 16 17 17 17 16 15 14 14 15 19 23 25 27 30 31 32 32 34 35 35 35 37 37 37 38
11 10 11 12 7 1 2 11 15 11 16 23 18 10 9 9 7 7 10 10 5 4 3 4 5 9 10 8 10 10 9 11 12 13 15 15 13 13 14 15 15 15 15 15 14 14 14 16 21 24 25 28 31 31 31 33 35 34 35 36 37 38 38
6 7 11 15 8 1 2 3 7 4 7 19 20 13 10 8 7 7 9 10 3 2 9 11 9 9 11 10 10 11 10 10 11 12 12 13 13 13 12 12 12 12 13 13 14 14 14 16 20 22 23 27 30 30 30 32 34 35 35 36 38 39 38
3 3 8 14 9 5 6 4 2 3 3 9 16 13 9 6 8 8 9 10 4 3 10 11 8 10 12 13 12 12 10 10 12 13 11 11 11 11 10 10 10 10 11 12 13 13 13 16 20 22 23 25 28 29 30 31 33 35 34 34 36 39 38
4 4 7 9 8 6 7 3 0 2 4 4 10 14 12 6 7 7 6 6 7 6 10 10 10 12 11 11 10 10 10 10 12 12 11 9 9 9 9 9 9 9 9 9 10 12 13 16 20 22 24 24 26 29 31 31 31 33 34 33 33 36 38
5 8 8 5 4 4 3 0 1 2 6 6 3 5 10 7 4 6 8 6 4 9 11 9 11 12 10 9 9 9 9 9 10 12 12 9 7 8 9 9 7 7 7 6 6 9 13 15 17 19 21 21 24 28 30 31 31 31 33 32 31 33 37
5 7 5 2 1 5 2 2 4 7 8 5 9 14 10 8 7 3 14 13 6 9 12 10 10 11 11 11 13 14 13 12 12 13 13 13 12 11 11 11 9 8 8 8 7 8 8 7 9 14 18 19 20 23 25 27 29 30 32 32 30 31 34
4 3 1 2 3 6 1 6 10 14 11 6 6 15 17 18 18 11 6 13 11 12 13 11 10 11 13 15 15 16 17 16 14 13 12 13 15 13 11 11 10 8 9 10 9 10 11 10 6 3 9 15 19 21 22 23 24 27 29 31 31 30 32
3 3 3 3 3 5 2 7 11 12 11 8 3 9 11 18 20 18 10 5 12 14 14 12 11 13 15 14 12 14 16 15 14 13 12 12 13 12 11 11 11 12 14 14 13 12 13 12 11 10 6 4 10 14 19 23 23 23 25 27 29 29 30
3 4 3 2 2 2 4 11 17 16 15 12 3 12 10 17 19 20 15 8 9 11 12 12 11 13 14 10 8 10 13 12 13 13 12 12 11 10 11 10 12 15 15 13 14 15 15 14 13 12 13 9 4 4 9 17 24 25 23 24 27 27 28
3 3 2 2 1 1 8 17 20 19 20 14 3 11 8 13 17 18 17 16 14 11 11 12 11 11 10 6 5 8 10 11 12 11 11 11 10 10 12 12 11 15 16 15 16 17 16 16 15 13 14 12 8 6 6 7 15 22 25 26 26 27 27
4 3 2 2 1 3 12 18 18 20 19 11 4 8 4 10 14 15 16 17 17 14 13 14 12 9 7 5 5 7 9 11 12 12 11 11 10 11 13 15 16 17 18 17 16 16 15 15 14 14 15 15 12 9 8 7 6 13 21 26 29 28 27
4 4 3 2 1 4 13 17 18 20 15 4 7 6 2 8 10 12 15 16 15 14 12 11 10 8 7 7 8 10 11 12 12 12 12 13 14 15 15 16 17 17 17 16 14 13 14 15 14 15 16 16 16 13 10 9 8 8 11 20 28 29 28
3 2 3 3 0 6 15 16 17 17 9 4 4 1 4 7 8 11 14 14 14 13 12 10 9 8 9 11 12 13 13 13 12 13 12 12 14 16 16 16 16 14 12 12 12 12 14 15 14 15 16 17 18 15 10 8 9 8 8 14 26 30 29
2 1 3 3 1 7 17 15 13 13 8 2 1 2 4 8 11 11 11 12 13 13 11 11 10 9 10 11 12 12 12 12 12 12 12 12 11 13 14 14 16 16 10 8 10 12 12 12 13 13 14 17 17 11 6 9 8 6 5 7 22 29 29
3 2 2 2 1 6 10 9 7 8 6 2 1 2 5 8 10 9 9 11 13 12 11 11 10 10 11 10 10 11 10 10 11 10 10 11 10 11 13 13 16 17 12 7 9 11 11 12 12 11 12 14 12 7 7 11 10 7 6 2 13 24 27
1 1 2 2 4 5 5 5 4 5 8 7 5 6 5 6 7 7 7 9 12 12 11 10 10 11 12 11 11 10 9 9 10 10 9 10 11 12 13 12 13 15 14 9 8 8 10 12 13 12 10 10 10 9 8 10 9 8 9 5 7 18 22
2 2 5 2 3 6 6 5 3 4 5 7 6 6 6 5 6 6 7 8 10 11 11 10 10 10 12 13 13 12 10 9 9 9 9 10 12 14 14 11 11 13 14 11 8 8 9 11 13 14 12 10 10 10 8 9 8 7 9 7 5 13 17
3 2 3 5 7 8 6 5 4 3 3 4 5 5 4 4 5 6 8 8 8 9 10 10 10 10 11 12 12 11 10 9 8 8 8 8 10 13 13 10 9 11 11 10 9 9 8 9 11 13 12 10 10 9 7 8 8 5 6 7 6 10 13
4 4 6 9 9 7 5 3 3 4 4 5 5 5 4 4 5 7 9 8 7 8 9 9 10 10 10 10 10 9 9 8 7 7 7 7 9 14 16 11 6 6 9 8 7 7 7 9 11 13 11 8 8 7 7 7 7 4 3 4 5 8 11
5 4 5 8 7 6 7 7 6 7 8 6 6 6 6 5 6 7 7 8 7 7 7 8 8 8 8 8 8 8 8 8 8 7 7 8 10 13 18 14 5 2 6 6 5 7 9 10 14 15 12 8 7 7 7 7 7 4 2 0 3 5 8
5 6 8 10 8 7 9 9 9 10 10 8 7 6 5 6 5 5 5 6 7 6 6 6 6 6 6 7 8 8 7 7 9 8 8 10 11 13 18 16 6 1 3 4 4 6 9 13 16 16 12 8 6 8 10 10 8 4 2 1 2 4 5
6 9 11 11 8 7 9 11 12 10 8 8 9 7 5 6 6 4 4 5 6 5 5 5 5 6 6 6 7 8 7 7 9 11 11 11 11 12 15 16 8 2 2 3 4 6 9 14 17 14 11 10 12 13 13 12 11 8 4 2 7 9 9
10 11 12 12 11 10 10 12 14 12 8 7 8 7 5 5 6 5 4 4 5 5 5 5 6 7 7 7 7 7 7 7 9 12 14 15 15 14 13 13 10 6 3 3 6 9 11 15 19 19 20 20 19 17 15 13 13 11 9 9 12 15 14
11 12 13 13 14 15 14 11 11 11 10 8 8 7 5 4 4 5 5 4 3 4 5 5 7 8 8 7 7 7 7 8 9 10 13 15 16 15 13 9 6 7 6 7 9 10 11 14 17 20 22 23 21 18 16 15 15 15 15 15 15 16 16
Wind_Direction
213 194 200 207 200 183 169 193 208 191 187 194 150 156 170 163 220 213 210 239 253 259 257 220 213 236 244 229 215 183 161 165 169 168 169 171 172 172 172 175 176 177 178 179 182 183 180 181 187 191 190 187 186 186 188 191 193 195 197 199 201 200 199
222 202 193 208 215 195 162 189 197 151 187 222 171 151 186 189 220 217 207 220 214 210 237 231 215 219 225 224 219 202 169 165 168 169 172 172 168 170 171 172 174 174 178 181 184 185 184 185 189 191 190 188 187 187 188 189 191 195 198 201 203 203 201
213 204 191 205 218 213 191 171 167 166 209 212 181 191 189 185 212 222 217 218 207 199 201 208 218 216 215 212 208 206 182 168 169 167 168 170 165 166 170 170 174 175 177 181 184 186 187 187 189 189 189 188 188 188 188 190 193 196 199 201 203 205 205
194 198 193 198 207 211 209 174 165 188 215 181 173 206 195 182 204 213 221 220 211 212 196 195 209 210 207 205 199 201 187 170 172 164 161 167 165 166 170 171 178 179 177 181 184 185 186 186 187 187 187 188 189 189 189 191 194 197 199 201 203 205 206
183 195 200 194 189 196 208 195 175 185 195 167 174 210 222 208 216 202 216 236 233 231 201 190 198 202 201 197 187 194 183 166 170 169 164 168 168 168 171 174 179 180 179 181 183 183 183 184 186 187 188 189 189 189 190 191 193 196 199 201 203 205 206
192 197 193 186 184 190 205 206 182 178 184 179 178 204 218 211 237 224 203 240 251 255 223 189 192 195 192 186 174 181 183 169 168 171 169 169 169 170 172 175 179 180 180 180 179 180 183 183 184 187 189 189 189 190 191 191 193 195 198 201 203 205 206
233 204 183 175 182 190 202 214 201 177 181 189 180 192 202 200 234 246 236 259 261 273 265 193 183 177 168 172 170 169 185 175 167 171 170 166 169 174 175 175 177 179 180 178 177 180 184 183 184 187 190 190 190 191 191 190 192 195 198 200 202 205 206
272 238 183 170 179 190 201 213 213 193 185 188 184 178 178 183 219 230 250 281 265 287 305 147 151 149 144 160 170 171 189 176 164 168 168 163 167 176 179 176 175 176 175 173 175 181 185 186 187 190 192 192 192 192 191 192 193 195 197 200 202 203 206
240 256 195 171 179 190 201 204 208 218 195 179 187 210 169 179 215 207 205 252 250 287 336 54 103 127 139 162 181 181 183 168 162 166 167 165 167 173 177 175 171 171 170 171 176 181 186 187 188 190 191 193 193 193 193 192 193 196 197 199 200 203 205
211 226 207 184 180 186 202 198 198 218 214 183 183 199 165 185 215 205 196 226 256 295 355 46 71 109 141 167 179 167 148 143 157 166 168 169 167 166 170 169 168 171 171 174 178 181 186 185 183 186 189 193 195 193 193 192 193 195 197 199 201 203 205
246 254 248 197 172 173 196 203 192 204 219 205 178 173 193 188 181 201 206 186 222 287 342 64 105 119 119 118 105 99 98 110 140 164 173 174 165 161 165 165 168 172 172 176 179 180 184 181 178 181 186 193 194 191 192 193 193 193 196 199 201 203 205
258 266 286 261 173 172 187 202 200 193 206 219 201 179 195 164 142 207 224 165 160 249 259 233 203 140 108 102 99 97 104 107 129 163 173 172 160 157 162 163 166 168 169 174 176 176 178 178 179 183 187 192 193 191 191 193 193 194 195 198 200 202 204
292 280 284 286 239 172 181 200 211 194 193 213 218 191 181 158 143 199 203 158 161 216 232 242 210 129 113 114 109 99 100 99 110 149 159 156 150 155 161 161 163 166 168 170 171 172 174 177 182 188 190 191 191 191 192 192 194 196 195 196 199 201 203
301 304 289 281 277 16 126 200 214 208 191 203 216 210 186 169 160 186 174 151 167 207 131 78 89 110 106 103 104 95 88 92 105 129 137 134 141 152 158 160 162 166 168 167 168 171 175 181 187 190 189 188 188 190 191 192 195 197 196 196 198 200 203
298 325 310 296 287 340 2 220 219 255 206 198 208 217 204 178 173 181 142 112 93 87 94 83 77 89 85 73 80 85 80 79 89 107 118 122 133 143 147 154 159 163 164 165 170 175 178 183 188 189 185 184 186 189 191 194 196 197 198 197 198 200 202
318 314 289 292 308 314 288 266 237 335 314 206 201 207 213 183 172 169 120 108 140 122 96 91 72 69 76 72 70 76 75 67 72 83 92 98 111 124 130 136 144 153 159 162 168 176 181 183 186 186 181 180 185 189 192 195 197 198 201 200 200 201 202
330 319 281 287 319 304 266 263 308 28 349 272 198 198 217 197 155 159 139 150 182 141 97 93 83 71 73 78 79 81 75 66 68 74 77 85 103 113 115 119 132 141 147 151 159 169 175 177 181 185 182 180 184 190 193 196 197 199 203 204 202 201 202
313 320 311 320 341 285 229 91 341 35 18 9 98 177 229 222 156 142 136 134 151 120 101 99 99 89 82 84 82 77 72 66 65 63 59 62 79 93 95 97 107 117 117 117 126 145 160 168 173 180 184 185 187 191 194 196 198 200 203 207 206 202 201
292 319 343 39 295 264 205 98 18 13 5 9 62 49 15 345 349 81 125 121 110 104 99 99 102 95 84 72 60 55 55 57 64 64 59 57 59 61 65 64 66 76 83 80 71 79 102 128 163 180 189 193 192 194 196 197 199 201 203 206 208 205 202
300 335 350 181 248 281 241 76 33 11 345 315 63 51 25 8 0 1 102 124 114 97 92 93 96 90 78 64 51 48 49 51 56 57 56 63 65 60 56 54 50 50 58 62 57 53 52 49 54 158 199 204 201 201 202 203 204 205 204 206 208 206 202
350 339 278 228 274 313 10 42 13 348 318 306 88 83 24 9 10 359 349 103 110 100 97 98 94 82 70 56 41 38 44 48 52 51 49 57 67 64 55 52 44 36 40 45 43 39 37 34 28 18 3 241 217 214 210 208 209 210 209 208 208 206 203
349 331 304 279 278 297 1 352 341 329 311 307 88 96 36 2 8 3 353 14 74 93 103 103 95 79 66 54 33 29 37 43 46 49 46 43 56 65 57 51 41 30 31 37 39 41 37 29 20 10 7 5 340 289 237 217 212 210 212 212 211 208 204
312 318 347 337 291 49 358 341 336 329 315 307 46 88 39 351 356 3 6 16 30 53 74 76 78 79 71 63 37 26 35 38 37 47 46 32 37 50 48 49 43 34 36 39 42 47 39 20 10 1 354 354 353 339 314 254 220 212 212 212 211 211 209
298 300 318 339 44 16 345 339 337 325 309 304 49 77 26 336 347 2 13 22 25 33 50 59 63 71 74 71 47 35 43 44 37 40 40 29 26 29 33 41 42 38 42 38 32 36 28 10 7 3 353 347 341 331 326 319 271 231 222 215 210 212 212
318 321 333 343 100 1 342 343 344 334 319 338 61 74 275 306 344 12 17 21 25 25 39 56 59 58 58 54 44 38 41 45 42 38 33 28 22 12 19 40 40 32 36 33 19 19 21 12 6 360 351 344 336 323 313 316 314 296 258 227 212 210 210
309 347 355 338 49 355 344 346 354 356 4 55 52 44 265 310 5 26 19 20 22 19 32 51 57 57 52 45 43 38 33 35 38 35 28 26 19 6 13 37 35 22 34 35 13 12 22 13 357 350 347 340 327 314 311 324 323 321 301 236 213 207 205
328 38 22 14 42 342 342 351 8 17 33 85 278 306 336 2 20 24 19 21 20 17 26 34 40 50 48 47 48 41 32 31 33 30 22 18 14 4 8 23 20 10 23 37 15 16 23 6 349 346 343 333 322 313 339 1 352 344 337 238 211 204 200
10 46 38 25 270 307 342 13 30 10 5 40 115 36 10 10 17 18 17 16 13 17 24 20 23 32 34 41 51 43 34 32 30 30 24 15 8 360 1 15 14 0 358 23 29 21 13 359 349 348 347 341 344 9 29 11 4 17 19 312 209 202 197
23 295 263 260 263 288 348 40 55 11 359 6 44 62 39 11 7 12 15 11 8 13 17 13 17 21 18 24 34 34 34 33 26 24 23 16 3 348 349 8 14 356 348 6 29 23 7 0 356 354 357 357 359 9 13 4 8 26 27 21 199 197 192
10 280 245 238 333 333 349 16 43 44 17 0 14 50 54 21 3 7 14 11 6 8 11 11 14 17 16 16 16 16 21 28 27 18 13 10 358 344 343 1 10 360 352 356 14 25 13 360 354 355 0 4 360 358 0 359 360 17 32 44 155 184 184
9 332 315 355 347 326 331 3 8 359 20 32 27 40 56 37 13 13 12 9 8 9 9 9 8 10 18 18 11 7 8 13 20 15 2 356 346 334 332 346 3 2 356 354 13 28 11 347 345 350 353 358 1 359 359 357 351 358 33 52 101 150 162
340 311 314 324 311 287 293 331 337 332 10 46 35 18 34 48 36 22 8 2 11 13 7 7 5 5 15 18 9 3 2 358 3 6 349 338 336 326 321 326 350 4 353 354 13 14 351 334 335 335 334 344 354 351 346 347 343 332 353 44 79 117 136
311 293 316 333 328 314 321 338 355 356 359 14 16 6 12 30 44 38 11 355 7 16 7 3 1 358 7 13 4 359 358 350 349 351 334 326 326 320 316 316 314 334 338 349 8 351 338 337 332 321 314 323 349 4 0 345 332 311 276 28 74 111 128
316 323 351 3 354 326 317 331 349 354 351 352 353 356 4 11 28 50 32 353 352 6 3 353 351 350 354 0 358 356 352 344 343 343 329 320 316 315 318 320 315 281 336 348 357 339 336 340 335 322 310 314 353 30 31 16 7 358 286 250 107 129 137
309 320 339 347 336 311 312 324 330 334 340 342 337 338 360 2 355 22 43 5 339 340 343 340 342 345 345 351 357 352 339 331 336 337 329 318 309 310 322 328 330 322 305 317 336 347 355 0 360 1 11 22 31 41 40 30 24 20 13 67 93 98 102
310 317 327 327 314 302 305 315 317 315 314 316 315 317 339 350 338 344 1 342 315 318 330 337 344 346 343 343 343 336 324 320 329 334 329 317 306 302 312 327 341 353 4 22 27 30 33 28 24 27 31 30 32 38 40 37 35 38 56 86 91 88 90
310 310 314 312 304 298 298 303 303 297 293 294 294 291 295 302 299 302 302 286 289 323 332 337 339 334 327 323 320 315 311 311 317 325 321 310 300 293 290 300 339 9 34 55 52 46 46 43 38 36 31 26 27 34 39 43 49 56 69 82 81 77 80